This is the latest recevied weather packets stored in our database for station/object K7TSD. If no packets are shown the sender has not sent any weather packets the latest 10 day(s).
| Time | Temp. | Humidity | Pressure | Rain* | Wind** | Luminosity | Snow |
|---|---|---|---|---|---|---|---|
| 1778092146 | 6.67° C | 47% | 1013.7 hPa | 0 mm | - | 783 W/m² | - |
| 1778091843 | 6.67° C | 47% | 1014.2 hPa | 0 mm | - | 743 W/m² | - |
| 1778091540 | 7.22° C | 45% | 1014 hPa | 0 mm | - | 788 W/m² | - |
| 1778091238 | 6.11° C | 49% | 1014.2 hPa | 0 mm | - | 811 W/m² | - |
| 1778090935 | 6.11° C | 50% | 1014.4 hPa | 0 mm | - | 865 W/m² | - |
| 1778090631 | 6.11° C | 46% | 1014.4 hPa | 0 mm | - | 835 W/m² | - |
| 1778090328 | 6.67° C | 46% | 1014.3 hPa | 0 mm | - | 812 W/m² | - |
| 1778090024 | 6.11° C | 48% | 1014.4 hPa | 0 mm | - | 786 W/m² | - |
| 1778089721 | 7.22° C | 43% | 1014.5 hPa | 0 mm | - | 786 W/m² | - |
| 1778089419 | 7.22° C | 46% | 1014.5 hPa | 0 mm | - | 801 W/m² | - |
| 1778089116 | 7.22° C | 46% | 1014.7 hPa | 0 mm | - | 780 W/m² | - |
| 1778088813 | 6.67° C | 48% | 1014.9 hPa | 0 mm | - | 802 W/m² | - |
| 1778088510 | 7.22° C | 46% | 1014.6 hPa | 0 mm | - | 811 W/m² | - |
| 1778088207 | 6.11° C | 49% | 1014.6 hPa | 0 mm | - | 806 W/m² | - |
| 1778087904 | 5.56° C | 46% | 1014.7 hPa | 0 mm | - | 789 W/m² | - |
| 1778087601 | 5° C | 48% | 1014.7 hPa | 0 mm | - | 803 W/m² | - |
| 1778087299 | 5° C | 47% | 1015 hPa | 0 mm | - | 810 W/m² | - |
| 1778086994 | 5° C | 50% | 1014.5 hPa | 0 mm | - | 788 W/m² | - |
| 1778086694 | 5.56° C | 49% | 1014.6 hPa | 0 mm | - | 758 W/m² | - |
| 1778086391 | 5° C | 50% | 1014.7 hPa | 0 mm | - | 776 W/m² | - |
| 1778086088 | 4.44° C | 49% | 1014.9 hPa | 0 mm | - | 749 W/m² | - |
| 1778085784 | 4.44° C | 50% | 1014.9 hPa | 0 mm | - | 749 W/m² | - |
| 1778085481 | 5° C | 50% | 1014.9 hPa | 0 mm | - | 721 W/m² | - |
| 1778085176 | 5° C | 48% | 1014.9 hPa | 0 mm | - | 716 W/m² | - |
| 1778084872 | 4.44° C | 48% | 1015 hPa | 0 mm | - | 719 W/m² | - |
* Rain latest hour (hover to see other rain measurements)
** Current wind speed in m/s (hover to see current wind gust speed)